Home   Weather   Werl   Past weeks

Flag for Germany Past Weather in Werl, North Rhine-Westphalia, Germany — Yesterday and Last 2 Weeks

Now
32 °F

Passing clouds.


Feels Like: 29 °F
Forecast: 32 / 53 °F
Wind: 3 mph from Southwest

Location: Paderborn / Lippstadt

Current Time: Apr 27, 2017 at 3:32:37 am

Latest Report: Apr 27, 2017 at 2:50 am


Visibility: N/A

Pressure: 29.95 "Hg

Humidity: 93%

Dew Point: 30 °F

Location of WerlLocation

Past Weather in Werl — Graph

°F

Werl Temperature Yesterday

Maximum temperature yesterday: 48 °F (at 1:20 pm)
Minimum temperature yesterday: 32 °F (at 3:20 am)
Average temperature yesterday: 40 °F

High & Low Weather Summary for the Past Weeks

 TemperatureHumidityPressure
High55 °F (Apr 24, 12:20 pm)100% (Apr 22, 3:50 am)30.60 "Hg (Apr 22, 3:50 am)
Low27 °F (Apr 20, 5:50 am)34% (Apr 20, 6:20 pm)29.62 "Hg (Apr 25, 3:50 am)
Average43 °F64%30.15 "Hg
* Reported Apr 19 8:50 am — Apr 27 2:20 am, Werl, Weather by CustomWeather, © 2017

Note: Actual official high and low records may vary slightly from our data, if they occured in-between our weather recording intervals... More about our weather records

Advertising

Werl Weather History for the Previous 24 Hours

Scroll right to see more
 ConditionsComfort  
Time TempWeatherWind HumidityBarometerVisibility
2:20 am
Thu, Apr 27
32 °FClear.2 mph87%29.95 "Hg10 mi
1:50 am34 °FClear.2 mph87%29.95 "Hg10 mi
1:20 am34 °FPassing clouds.5 mph87%29.95 "HgN/A
12:50 am34 °FClear.2 mph87%29.95 "Hg10 mi
12:20 am34 °FClear.5 mph87%29.95 "Hg10 mi
11:50 pm
Wed, Apr 26
36 °FPassing clouds.3 mph81%29.95 "HgN/A
11:20 pm36 °FPassing clouds.3 mph87%29.95 "HgN/A
10:50 pm37 °FPassing clouds.3 mph81%29.95 "HgN/A
10:20 pm37 °FClear.2 mph81%29.92 "Hg10 mi
9:50 pm39 °FClear.8 mph75%29.92 "Hg10 mi
8:50 pm41 °FClear.9 mph70%29.92 "Hg10 mi
8:20 pm43 °FPassing clouds.3 mph61%29.89 "HgN/A
7:50 pm46 °FPassing clouds.7 mph46%29.89 "HgN/A
7:20 pm46 °FScattered clouds.7 mph46%29.89 "HgN/A
6:50 pm46 °FScattered clouds.6 mph50%29.89 "HgN/A
6:20 pm48 °FScattered clouds.9 mph54%29.89 "HgN/A
5:50 pm48 °FScattered clouds.6 mph46%29.86 "HgN/A
5:20 pm48 °FScattered clouds.8 mph43%29.86 "HgN/A
4:50 pm48 °FScattered clouds.7 mph46%29.86 "HgN/A
4:20 pm46 °FScattered clouds.8 mph50%29.86 "HgN/A
3:50 pm46 °FScattered clouds.8 mph50%29.86 "HgN/A
3:20 pm46 °FScattered clouds.6 mph43%29.86 "HgN/A
2:50 pm46 °FScattered clouds.7 mph43%29.86 "HgN/A
2:20 pm48 °FScattered clouds.6 mph46%29.86 "HgN/A
1:50 pm46 °FScattered clouds.7 mph46%29.86 "HgN/A
1:20 pm48 °FScattered clouds.6 mph46%29.86 "HgN/A
12:50 pm46 °FScattered clouds.7 mph50%29.86 "HgN/A
12:20 pm45 °FScattered clouds.7 mph53%29.89 "HgN/A
11:50 am45 °FScattered clouds.3 mph53%29.86 "HgN/A
11:20 am43 °FScattered clouds.6 mph53%29.86 "HgN/A
10:50 am41 °FScattered clouds.6 mph66%29.86 "HgN/A
10:20 am41 °FScattered clouds.5 mph66%29.86 "HgN/A
9:50 am41 °FScattered clouds.6 mph70%29.86 "HgN/A
9:20 am41 °FPassing clouds.5 mph66%29.86 "HgN/A
8:50 am39 °FPassing clouds.5 mph75%29.86 "HgN/A
8:20 am36 °FPassing clouds.6 mph81%29.86 "HgN/A
7:50 am36 °FPassing clouds.5 mph81%29.86 "HgN/A
7:20 am36 °FPassing clouds.6 mph81%29.83 "HgN/A
6:50 am34 °FSunny.7 mph87%29.83 "Hg10 mi
6:20 am32 °FPassing clouds.3 mph87%29.83 "HgN/A
5:50 am34 °FClear.6 mph87%29.83 "Hg10 mi
5:20 am34 °FPassing clouds.6 mph87%29.83 "HgN/A
4:50 am34 °FOvercast.5 mph87%29.83 "HgN/A
4:20 am36 °FPassing clouds.7 mph81%29.83 "HgN/A
3:50 am32 °FPassing clouds.7 mph87%29.83 "HgN/A
3:20 am32 °FClear.7 mph87%29.83 "Hg10 mi
Weather by CustomWeather, © 2017

See weather overviewHow to use our weather pages